Regional Weather Roundup
Issued by NWS

Home | Current Version | Previous Version | Text Only | Print | Product List | Glossary On
Versions: 1 2 3 4 5 6 7 8 9 10 11 12 13 14 15 16 17 18 19 20 21 22 23 24 25 26 27 28 29 30 31 32 33 34 35 36 37 38 39 40 41 42 43 44 45 46 47 48 49 50
000
ASUS45 KCYS 302310
RWRWY

WYOMING REGIONAL WEATHER ROUNDUP
NATIONAL WEATHER SERVICE CHEYENNE WY
500 PM MDT THU MAR 30 2017

NOTE:  "FAIR" INDICATES FEW OR NO CLOUDS BELOW 12,000 FEET
WITH NO SIGNIFICANT WEATHER AND/OR OBSTRUCTIONS TO VISIBILITY.

WYZ001-310000-
YELLOWSTONE NATIONAL PARK

CITY           SKY/WX    TMP DP  RH WIND       PRES   REMARKS
LK YELLOWSTONE   N/A     39  34  82 VRB3      29.71F
W YELLOWSTONE  NOT AVBL

$$
WYZ002>013-054>058-071-098>099-310000-
NORTHERN WYOMING

CITY           SKY/WX    TMP DP  RH WIND       PRES   REMARKS
JACKSON        CLOUDY    45  36  70 NE8       29.65S
CODY           PTSUNNY   45  36  70 N16       29.71S
GREYBULL       FAIR      54  37  52 NW24G31   29.63S
WORLAND        FAIR      58  41  53 N22G32    29.61R
SHERIDAN       CLOUDY    48  42  80 NW10      29.72R
BUFFALO        CLOUDY    49  40  71 N13       29.72R
GILLETTE       CLOUDY    55  38  52 NE10      29.67R
HULETT         DRIZZLE   52  41  66 NE5       29.71R
NEWCASTLE      FAIR      55  32  41 S14G24    29.68R

$$
WYZ014>020-022>026-101>103-310000-
CENTRAL WYOMING

CITY           SKY/WX    TMP DP  RH WIND       PRES   REMARKS
BIG PINEY      PTSUNNY   45  35  68 SE12      29.66F
PINEDALE       FAIR      43  34  70 SE8       29.67F
DUBOIS         FAIR      43  32  65 NE5       29.64S
LANDER         CLOUDY    57  30  35 E6        29.58S
RIVERTON       PTSUNNY   58  31  35 E7        29.60S
CASPER         PTSUNNY   56  35  45 S7        29.63S
DOUGLAS        LGT RAIN  53  45  74 E8        29.67F

$$
WYZ021-027>030-104>119-310000-
SOUTHERN WYOMING

CITY           SKY/WX    TMP DP  RH WIND       PRES   REMARKS
EVANSTON       LGT SNOW  35  32  88 W5        29.64F FOG     WCI  31
KEMMERER       LGT RAIN  37  34  87 NE5       29.66F WCI  34
FORT BRIDGER   CLOUDY    41  41 100 N7        29.66F
ROCK SPRINGS   CLOUDY    50  35  56 NE5       29.62F
DIXON            N/A     58  27  29 S12G17    29.65F
RAWLINS        CLOUDY    53  29  39 CALM      29.65F
SARATOGA       CLOUDY    52  30  43 SE9       29.68F
LARAMIE        CLOUDY    46  32  58 NE10      29.71F
CHEYENNE       LGT RAIN  51  38  60 E14       29.69F
TORRINGTON     PTSUNNY   59  36  42 S5        29.65S
PINE BLUFFS    CLOUDY    52  41  66 NE12G18   29.69F

$$



USA.gov is the U.S. government's official web portal to all federal, state and local government web resources and services.